,,,PA_Meas_PMT16A,,PR_Meas_QMR101_102,,RH_Meas_QMH101,,SR_Meas_QMS101,,TA_Meas_QMH101,,GenWind,,GenWind,
date,time,status,PA,status,PR,status,RH,status,SR,status,TA,status,DirAvg,status,SpdAvg,
2011-01-01, 00:00:04,VALID,1002.04,VALID,0,INVALID,163.754,VALID,0,VALID,23.9566,VALID,30,VALID,0,
2011-01-01, 00:01:04,VALID,1002.03,VALID,0,INVALID,163.739,VALID,0,VALID,23.9159,VALID,30,VALID,0,
2011-01-01, 00:02:04,VALID,1001.99,VALID,0,INVALID,163.716,VALID,0,VALID,23.9353,VALID,30,VALID,0,
2011-01-01, 00:03:04,VALID,1001.98,VALID,0,INVALID,163.739,VALID,0,VALID,23.9548,VALID,30,VALID,0,
2011-01-01, 00:04:04,VALID,1001.96,VALID,0,INVALID,163.708,VALID,0,VALID,23.9937,VALID,30,VALID,0,
2011-01-01, 00:05:04,VALID,1001.96,VALID,0,INVALID,163.716,VALID,0,VALID,24.015,VALID,30,VALID,0,
2011-01-01, 00:06:04,VALID,1001.91,VALID,0,INVALID,163.693,VALID,0,VALID,23.9937,VALID,46,VALID,0.00625,
2011-01-01, 00:07:04,VALID,1001.9,VALID,0,INVALID,163.708,VALID,0.100563,VALID,23.9742,VALID,48,VALID,0.157031,
2011-01-01, 00:08:04,VALID,1001.92,VALID,0,INVALID,163.723,VALID,0,VALID,23.953,VALID,48,VALID,0.146094,
2011-01-01, 00:09:04,VALID,1001.9,VALID,0,INVALID,163.693,VALID,0.100563,VALID,23.9724,VALID,48,VALID,0.151172,
2011-01-01, 00:10:04,VALID,1001.9,VALID,0,INVALID,163.754,VALID,0.100563,VALID,24.015,VALID,48,VALID,0.299219,
2011-01-01, 00:11:04,VALID,1001.89,VALID,0,INVALID,163.701,VALID,0,VALID,23.9937,VALID,48,VALID,0.383594,
2011-01-01, 00:12:04,VALID,1001.88,VALID,0,INVALID,163.739,VALID,0,VALID,24.015,VALID,48,VALID,0.340234,
2011-01-01, 00:13:04,VALID,1001.86,VALID,0,INVALID,163.739,VALID,0,VALID,24.0132,VALID,48,VALID,0.349609,
2011-01-01, 00:14:04,VALID,1001.85,VALID,0,INVALID,163.708,VALID,0,VALID,24.0326,VALID,48,VALID,0.149609,
2011-01-01, 00:15:04,VALID,1001.85,VALID,0,INVALID,163.716,VALID,0,VALID,24.0521,VALID,48,VALID,0.261328,
2011-01-01, 00:16:04,VALID,1001.81,VALID,0,INVALID,163.708,VALID,0,VALID,24.0521,VALID,48,VALID,0.2875,
2011-01-01, 00:17:04,VALID,1001.81,VALID,0,INVALID,163.716,VALID,0,VALID,24.0521,VALID,48,VALID,0.331641,
2011-01-01, 00:18:04,VALID,1001.82,VALID,0,INVALID,163.701,VALID,0.100563,VALID,24.0697,VALID,48,VALID,0.212891,
2011-01-01, 00:19:04,VALID,1001.79,VALID,0,INVALID,163.701,VALID,0,VALID,24.1105,VALID,48,VALID,0,
2011-01-01, 00:20:04,VALID,1001.81,VALID,0,INVALID,163.701,VALID,0,VALID,24.1105,VALID,48,VALID,0,
2011-01-01, 00:21:04,VALID,1001.8,VALID,0,INVALID,163.723,VALID,0,VALID,24.1494,VALID,48,VALID,0,
2011-01-01, 00:22:04,VALID,1001.77,VALID,0,INVALID,163.693,VALID,0,VALID,24.13,VALID,48,VALID,0,
2011-01-01, 00:23:04,VALID,1001.74,VALID,0,INVALID,163.685,VALID,0,VALID,24.1105,VALID,48,VALID,0,
2011-01-01, 00:24:04,VALID,1001.73,VALID,0,INVALID,163.693,VALID,0,VALID,24.1494,VALID,48,VALID,0,
2011-01-01, 00:25:04,VALID,1001.73,VALID,0,INVALID,163.693,VALID,0,VALID,24.1689,VALID,48,VALID,0,
2011-01-01, 00:26:04,VALID,1001.73,VALID,0,INVALID,163.716,VALID,0,VALID,24.1884,VALID,48,VALID,0,
2011-01-01, 00:27:04,VALID,1001.68,VALID,0,INVALID,163.701,VALID,0,VALID,24.1902,VALID,48,VALID,0,
2011-01-01, 00:28:04,VALID,1001.65,VALID,0,INVALID,163.716,VALID,0,VALID,24.1689,VALID,48,VALID,0,
2011-01-01, 00:29:04,VALID,1001.65,VALID,0,INVALID,163.693,VALID,0,VALID,24.1476,VALID,48,VALID,0,
2011-01-01, 00:30:04,VALID,1001.64,VALID,0,INVALID,163.693,VALID,0,VALID,24.1689,VALID,48,VALID,0.545313,
2011-01-01, 00:31:04,VALID,1001.63,VALID,0,INVALID,163.723,VALID,0.100563,VALID,24.1902,VALID,45,VALID,0.517187,
2011-01-01, 00:32:04,VALID,1001.6,VALID,0,INVALID,163.67,VALID,0,VALID,24.1494,VALID,44,VALID,0.675,
2011-01-01, 00:33:04,VALID,1001.58,VALID,0,INVALID,163.708,VALID,0,VALID,24.1689,VALID,28,VALID,0.733984,
2011-01-01, 00:34:04,VALID,1001.58,VALID,0,INVALID,163.716,VALID,0,VALID,24.1689,VALID,24,VALID,0.476563,
2011-01-01, 00:35:04,VALID,1001.54,VALID,0,INVALID,163.685,VALID,0,VALID,24.1689,VALID,24,VALID,0.522266,
2011-01-01, 00:36:04,VALID,1001.55,VALID,0,INVALID,163.731,VALID,0,VALID,24.1689,VALID,24,VALID,0.4375,
2011-01-01, 00:37:04,VALID,1001.53,VALID,0,INVALID,163.678,VALID,0,VALID,24.2078,VALID,23,VALID,0.420312,
2011-01-01, 00:38:04,VALID,1001.49,VALID,0,INVALID,163.678,VALID,0,VALID,24.1884,VALID,22,VALID,0.416406,
2011-01-01, 00:39:04,VALID,1001.45,VALID,0,INVALID,163.723,VALID,0,VALID,24.1884,VALID,22,VALID,0.410547,
2011-01-01, 00:40:04,VALID,1001.43,VALID,0,INVALID,163.678,VALID,0,VALID,24.1689,VALID,22,VALID,0.476563,
2011-01-01, 00:41:04,VALID,1001.41,VALID,0,INVALID,163.678,VALID,0,VALID,24.1884,VALID,22,VALID,0.261328,
2011-01-01, 00:42:04,VALID,1001.37,VALID,0,INVALID,163.693,VALID,0,VALID,24.1689,VALID,22,VALID,0.501562,
2011-01-01, 00:43:04,VALID,1001.33,VALID,0,INVALID,163.708,VALID,0,VALID,24.1689,VALID,22,VALID,0.394531,
2011-01-01, 00:44:04,VALID,1001.32,VALID,0,INVALID,163.693,VALID,0,VALID,24.1689,VALID,22,VALID,0.325,
2011-01-01, 00:45:04,VALID,1001.31,VALID,0,INVALID,163.716,VALID,0,VALID,24.13,VALID,22,VALID,0.522266,
2011-01-01, 00:46:04,VALID,1001.28,VALID,0,INVALID,163.701,VALID,0,VALID,24.1494,VALID,22,VALID,0.429688,
2011-01-01, 00:47:04,VALID,1001.25,VALID,0,INVALID,163.701,VALID,0,VALID,24.13,VALID,22,VALID,0.458203,
2011-01-01, 00:48:04,VALID,1001.22,VALID,0,INVALID,163.701,VALID,0,VALID,24.13,VALID,22,VALID,0.267969,
2011-01-01, 00:49:04,VALID,1001.19,VALID,0,INVALID,163.701,VALID,0,VALID,24.1494,VALID,22,VALID,0.165625,
2011-01-01, 00:50:04,VALID,1001.19,VALID,0,INVALID,163.708,VALID,0,VALID,24.13,VALID,22,VALID,0.163281,
2011-01-01, 00:51:04,VALID,1001.2,VALID,0,INVALID,163.723,VALID,0.100563,VALID,24.1281,VALID,22,VALID,0.148828,
2011-01-01, 00:52:04,VALID,1001.2,VALID,0,INVALID,163.716,VALID,0,VALID,24.1318,VALID,22,VALID,0.0277344,
2011-01-01, 00:53:04,VALID,1001.18,VALID,0,INVALID,163.731,VALID,0,VALID,24.13,VALID,22,VALID,0,
2011-01-01, 00:54:04,VALID,1001.19,VALID,0,INVALID,163.723,VALID,0.100563,VALID,24.1087,VALID,22,VALID,0,
2011-01-01, 00:55:04,VALID,1001.2,VALID,0,INVALID,163.716,VALID,0,VALID,24.1105,VALID,22,VALID,0,
2011-01-01, 00:56:04,VALID,1001.21,VALID,0,INVALID,163.693,VALID,0,VALID,24.1105,VALID,22,VALID,0,
2011-01-01, 00:57:04,VALID,1001.2,VALID,0,INVALID,163.723,VALID,0,VALID,24.0716,VALID,22,VALID,0,
2011-01-01, 00:58:04,VALID,1001.17,VALID,0,INVALID,163.708,VALID,0,VALID,24.0716,VALID,22,VALID,0,
2011-01-01, 00:59:04,VALID,1001.18,VALID,0,INVALID,163.716,VALID,0.100563,VALID,24.091,VALID,22,VALID,0,
2011-01-01, 01:00:04,VALID,1001.17,VALID,0,INVALID,163.716,VALID,0,VALID,24.0697,VALID,22,VALID,0.266797,
2011-01-01, 01:01:04,VALID,1001.2,VALID,0,INVALID,163.708,VALID,0,VALID,24.0716,VALID,22,VALID,0.442578,
2011-01-01, 01:02:04,VALID,1001.18,VALID,0,INVALID,163.701,VALID,0,VALID,24.0716,VALID,22,VALID,0.619922,
2011-01-01, 01:03:04,VALID,1001.15,VALID,0,INVALID,163.723,VALID,0.100563,VALID,24.0326,VALID,4,VALID,0.591797,
2011-01-01, 01:04:04,VALID,1001.11,VALID,0,INVALID,163.701,VALID,0,VALID,24.0114,VALID,2,VALID,0.661328,
2011-01-01, 01:05:04,VALID,1001.13,VALID,0,INVALID,163.716,VALID,0,VALID,24.0132,VALID,2,VALID,0.538672,
2011-01-01, 01:06:04,VALID,1001.09,VALID,0,INVALID,163.693,VALID,0,VALID,23.9724,VALID,2,VALID,0.447656,
2011-01-01, 01:07:04,VALID,1001.1,VALID,0,INVALID,163.701,VALID,0,VALID,23.9937,VALID,2,VALID,0.0570313,
2011-01-01, 01:08:04,VALID,1001.09,VALID,0,INVALID,163.723,VALID,0,VALID,23.9724,VALID,2,VALID,0,
2011-01-01, 01:09:04,VALID,1001.07,VALID,0,INVALID,163.708,VALID,0.100563,VALID,23.9919,VALID,2,VALID,0,
2011-01-01, 01:10:04,VALID,1001.09,VALID,0,INVALID,163.723,VALID,0,VALID,24.0132,VALID,2,VALID,0,
2011-01-01, 01:11:04,VALID,1001.08,VALID,0,INVALID,163.723,VALID,0,VALID,23.9919,VALID,2,VALID,0,
2011-01-01, 01:12:04,VALID,1001.09,VALID,0,INVALID,163.723,VALID,0.100563,VALID,24.0132,VALID,2,VALID,0,
2011-01-01, 01:13:04,VALID,1001.07,VALID,0,INVALID,163.723,VALID,0,VALID,23.9919,VALID,2,VALID,0,
2011-01-01, 01:14:04,VALID,1001.07,VALID,0,INVALID,163.708,VALID,0,VALID,24.015,VALID,2,VALID,0,
2011-01-01, 01:15:04,VALID,1001.03,VALID,0,INVALID,163.723,VALID,0.100563,VALID,23.9724,VALID,2,VALID,0,
2011-01-01, 01:16:04,VALID,1001.01,VALID,0,INVALID,163.693,VALID,0,VALID,23.9548,VALID,2,VALID,0.112891,
2011-01-01, 01:17:04,VALID,1000.99,VALID,0,INVALID,163.723,VALID,0.100563,VALID,23.914,VALID,2,VALID,0.558594,
2011-01-01, 01:18:04,VALID,1001.02,VALID,0,INVALID,163.716,VALID,0,VALID,23.9159,VALID,2,VALID,0.45625,
2011-01-01, 01:19:04,VALID,1000.99,VALID,0,INVALID,163.708,VALID,0,VALID,23.914,VALID,2,VALID,0.295703,
2011-01-01, 01:20:04,VALID,1000.99,VALID,0,INVALID,163.723,VALID,0,VALID,23.9159,VALID,2,VALID,0.0203125,
2011-01-01, 01:21:04,VALID,1000.98,VALID,0,INVALID,163.731,VALID,0,VALID,23.9159,VALID,2,VALID,0,
2011-01-01, 01:22:04,VALID,1000.98,VALID,0,INVALID,163.723,VALID,0,VALID,23.8964,VALID,2,VALID,0.211719,
2011-01-01, 01:23:04,VALID,1000.95,VALID,0,INVALID,163.754,VALID,0.100563,VALID,23.8964,VALID,5,VALID,0.333984,
2011-01-01, 01:24:04,VALID,1000.95,VALID,0,INVALID,163.739,VALID,0,VALID,23.8769,VALID,5,VALID,0.432813,
2011-01-01, 01:25:04,VALID,1000.94,VALID,0,INVALID,163.739,VALID,0,VALID,23.8769,VALID,5,VALID,0.292578,
2011-01-01, 01:26:04,VALID,1000.92,VALID,0,INVALID,163.723,VALID,0.100563,VALID,23.8769,VALID,5,VALID,0.316797,
2011-01-01, 01:27:04,VALID,1000.91,VALID,0,INVALID,163.723,VALID,0,VALID,23.8769,VALID,10,VALID,0.404687,
2011-01-01, 01:28:04,VALID,1000.87,VALID,0,INVALID,163.723,VALID,0,VALID,23.8769,VALID,53,VALID,0.492188,
2011-01-01, 01:29:04,VALID,1000.87,VALID,0,INVALID,163.731,VALID,0.100563,VALID,23.8769,VALID,53,VALID,0.423828,
2011-01-01, 01:30:04,VALID,1000.85,VALID,0,INVALID,163.777,VALID,0.100563,VALID,23.8769,VALID,79,VALID,0.44375,
2011-01-01, 01:31:04,VALID,1000.81,VALID,0,INVALID,163.754,VALID,0.100563,VALID,23.8556,VALID,89,VALID,0.501562,
2011-01-01, 01:32:04,VALID,1000.82,VALID,0,INVALID,163.708,VALID,0,VALID,23.8769,VALID,89,VALID,0.225781,
2011-01-01, 01:33:04,VALID,1000.79,VALID,0,INVALID,163.723,VALID,0.100563,VALID,23.8575,VALID,89,VALID,0.0984375,
2011-01-01, 01:34:04,VALID,1000.74,VALID,0,INVALID,163.701,VALID,0.100563,VALID,23.838,VALID,89,VALID,0.00585938,
2011-01-01, 01:35:04,VALID,1000.74,VALID,0,INVALID,163.723,VALID,0.100563,VALID,23.8167,VALID,89,VALID,0,
2011-01-01, 01:36:04,VALID,1000.72,VALID,0,INVALID,163.723,VALID,0.100563,VALID,23.8185,VALID,89,VALID,0,
2011-01-01, 01:37:04,VALID,1000.72,VALID,0,INVALID,163.739,VALID,0,VALID,23.8185,VALID,89,VALID,0,
2011-01-01, 01:38:04,VALID,1000.68,VALID,0,INVALID,163.746,VALID,0,VALID,23.7778,VALID,89,VALID,0,
2011-01-01, 01:39:04,VALID,1000.69,VALID,0,INVALID,163.723,VALID,0.100563,VALID,23.8185,VALID,89,VALID,0,
2011-01-01, 01:40:04,VALID,1000.65,VALID,0,INVALID,163.731,VALID,0,VALID,23.7973,VALID,89,VALID,0,
2011-01-01, 01:41:04,VALID,1000.66,VALID,0,INVALID,163.739,VALID,0,VALID,23.7973,VALID,89,VALID,0,
2011-01-01, 01:42:04,VALID,1000.69,VALID,0,INVALID,163.746,VALID,0.100563,VALID,23.7991,VALID,89,VALID,0,
2011-01-01, 01:43:04,VALID,1000.69,VALID,0,INVALID,163.739,VALID,0,VALID,23.8185,VALID,89,VALID,0,
2011-01-01, 01:44:04,VALID,1000.66,VALID,0,INVALID,163.723,VALID,0.100563,VALID,23.7991,VALID,89,VALID,0,
2011-01-01, 01:45:04,VALID,1000.67,VALID,0,INVALID,163.731,VALID,0.100563,VALID,23.8185,VALID,89,VALID,0,
2011-01-01, 01:46:04,VALID,1000.69,VALID,0,INVALID,163.723,VALID,0.100563,VALID,23.7991,VALID,74,VALID,0.121875,
2011-01-01, 01:47:04,VALID,1000.69,VALID,0,INVALID,163.746,VALID,0,VALID,23.7973,VALID,74,VALID,0.399609,
2011-01-01, 01:48:04,VALID,1000.7,VALID,0,INVALID,163.746,VALID,0.100563,VALID,23.7583,VALID,74,VALID,0.376953,
2011-01-01, 01:49:04,VALID,1000.72,VALID,0,INVALID,163.746,VALID,0.100563,VALID,23.7778,VALID,74,VALID,0.201562,
2011-01-01, 01:50:04,VALID,1000.69,VALID,0,INVALID,163.739,VALID,0,VALID,23.7796,VALID,74,VALID,0,
2011-01-01, 01:51:04,VALID,1000.68,VALID,0,INVALID,163.754,VALID,0,VALID,23.7407,VALID,74,VALID,0.297266,
2011-01-01, 01:52:04,VALID,1000.7,VALID,0,INVALID,163.716,VALID,0,VALID,23.7194,VALID,74,VALID,0.409766,
2011-01-01, 01:53:04,VALID,1000.68,VALID,0,INVALID,163.731,VALID,0,VALID,23.7601,VALID,70,VALID,0.46875,
2011-01-01, 01:54:04,VALID,1000.7,VALID,0,INVALID,163.754,VALID,0,VALID,23.7814,VALID,61,VALID,0.377344,
2011-01-01, 01:55:04,VALID,1000.68,VALID,0,INVALID,163.739,VALID,0,VALID,23.7407,VALID,61,VALID,0,
2011-01-01, 01:56:04,VALID,1000.69,VALID,0,INVALID,163.716,VALID,0,VALID,23.7601,VALID,61,VALID,0,
2011-01-01, 01:57:04,VALID,1000.68,VALID,0,INVALID,163.716,VALID,0,VALID,23.7407,VALID,61,VALID,0,
2011-01-01, 01:58:04,VALID,1000.66,VALID,0,INVALID,163.746,VALID,0.100563,VALID,23.7407,VALID,61,VALID,0,
2011-01-01, 01:59:04,VALID,1000.7,VALID,0,INVALID,163.723,VALID,0.100563,VALID,23.7407,VALID,61,VALID,0.348828,
2011-01-01, 02:00:04,VALID,1000.65,VALID,0,INVALID,163.739,VALID,0.100563,VALID,23.7,VALID,61,VALID,0.327344,
2011-01-01, 02:01:04,VALID,1000.65,VALID,0,INVALID,163.754,VALID,0,VALID,23.7212,VALID,61,VALID,0.366016,
2011-01-01, 02:02:04,VALID,1000.65,VALID,0,INVALID,163.739,VALID,0.100563,VALID,23.7017,VALID,61,VALID,0.315234,
2011-01-01, 02:03:04,VALID,1000.64,VALID,0,INVALID,163.739,VALID,0.100563,VALID,23.6823,VALID,61,VALID,0.209766,
2011-01-01, 02:04:04,VALID,1000.61,VALID,0,INVALID,163.739,VALID,0.100563,VALID,23.6628,VALID,61,VALID,0.273828,
2011-01-01, 02:05:04,VALID,1000.63,VALID,0,INVALID,163.746,VALID,0,VALID,23.6434,VALID,56,VALID,0.371875,
2011-01-01, 02:06:04,VALID,1000.63,VALID,0,INVALID,163.739,VALID,0.100563,VALID,23.585,VALID,56,VALID,0.263672,
2011-01-01, 02:07:04,VALID,1000.63,VALID,0,INVALID,163.739,VALID,0.100563,VALID,23.6044,VALID,56,VALID,0.261719,
2011-01-01, 02:08:04,VALID,1000.62,VALID,0,INVALID,163.739,VALID,0,VALID,23.585,VALID,56,VALID,0.160938,
2011-01-01, 02:09:04,VALID,1000.61,VALID,0,INVALID,163.769,VALID,0.100563,VALID,23.5832,VALID,56,VALID,0,
2011-01-01, 02:10:04,VALID,1000.6,VALID,0,INVALID,163.754,VALID,0.100563,VALID,23.5832,VALID,56,VALID,0,
2011-01-01, 02:11:04,VALID,1000.59,VALID,0,INVALID,163.777,VALID,0,VALID,23.5637,VALID,56,VALID,0,
2011-01-01, 02:12:04,VALID,1000.56,VALID,0,INVALID,163.754,VALID,0.100563,VALID,23.5655,VALID,56,VALID,0.335938,
2011-01-01, 02:13:04,VALID,1000.52,VALID,0,INVALID,163.769,VALID,0,VALID,23.585,VALID,55,VALID,0.420312,
2011-01-01, 02:14:04,VALID,1000.5,VALID,0,INVALID,163.754,VALID,0.100563,VALID,23.585,VALID,55,VALID,0.214062,
2011-01-01, 02:15:04,VALID,1000.5,VALID,0,INVALID,163.754,VALID,0,VALID,23.5637,VALID,55,VALID,0.376953,
2011-01-01, 02:16:04,VALID,1000.5,VALID,0,INVALID,163.754,VALID,0.100563,VALID,23.5637,VALID,55,VALID,0.428125,
2011-01-01, 02:17:04,VALID,1000.48,VALID,0,INVALID,163.762,VALID,0,VALID,23.585,VALID,36,VALID,0.469922,
2011-01-01, 02:18:04,VALID,1000.46,VALID,0,INVALID,163.777,VALID,0.100563,VALID,23.5655,VALID,36,VALID,0.302734,
2011-01-01, 02:19:04,VALID,1000.47,VALID,0,INVALID,163.731,VALID,0.100563,VALID,23.585,VALID,22,VALID,0.494922,
2011-01-01, 02:20:04,VALID,1000.47,VALID,0,INVALID,163.746,VALID,0,VALID,23.5443,VALID,10,VALID,0.578125,
2011-01-01, 02:21:04,VALID,1000.49,VALID,0,INVALID,163.739,VALID,0.100563,VALID,23.5655,VALID,10,VALID,0.412891,
2011-01-01, 02:22:04,VALID,1000.49,VALID,0,INVALID,163.754,VALID,0.100563,VALID,23.5266,VALID,10,VALID,0.280859,
2011-01-01, 02:23:04,VALID,1000.53,VALID,0,INVALID,163.754,VALID,0.100563,VALID,23.5053,VALID,10,VALID,0.432813,
2011-01-01, 02:24:04,VALID,1000.53,VALID,0,INVALID,163.777,VALID,0.100563,VALID,23.5266,VALID,10,VALID,0.283984,
2011-01-01, 02:25:04,VALID,1000.49,VALID,0,INVALID,163.746,VALID,0.100563,VALID,23.5053,VALID,10,VALID,0.314453,
2011-01-01, 02:26:04,VALID,1000.49,VALID,0,INVALID,163.754,VALID,0.100563,VALID,23.5266,VALID,10,VALID,0.26875,
2011-01-01, 02:27:04,VALID,1000.46,VALID,0,INVALID,163.723,VALID,0.100563,VALID,23.4859,VALID,10,VALID,0.294922,
2011-01-01, 02:28:04,VALID,1000.45,VALID,0,INVALID,163.777,VALID,0.100563,VALID,23.5071,VALID,9,VALID,0.364062,
2011-01-01, 02:29:04,VALID,1000.46,VALID,0,INVALID,163.754,VALID,0,VALID,23.4275,VALID,9,VALID,0.419922,
2011-01-01, 02:30:04,VALID,1000.46,VALID,0,INVALID,163.769,VALID,0.100563,VALID,23.4664,VALID,9,VALID,0.5,
2011-01-01, 02:31:04,VALID,1000.47,VALID,0,INVALID,163.777,VALID,0.100563,VALID,23.447,VALID,9,VALID,0.511719,
2011-01-01, 02:32:04,VALID,1000.45,VALID,0,INVALID,163.716,VALID,0.100563,VALID,23.447,VALID,9,VALID,0.585938,
2011-01-01, 02:33:04,VALID,1000.46,VALID,0,INVALID,163.746,VALID,0.100563,VALID,23.4682,VALID,9,VALID,0.503125,
2011-01-01, 02:34:04,VALID,1000.45,VALID,0,INVALID,163.762,VALID,0.100563,VALID,23.447,VALID,9,VALID,0.430469,
2011-01-01, 02:35:04,VALID,1000.46,VALID,0,INVALID,163.784,VALID,0.100563,VALID,23.4682,VALID,9,VALID,0.502344,
2011-01-01, 02:36:04,VALID,1000.47,VALID,0,INVALID,163.769,VALID,0.100563,VALID,23.4275,VALID,9,VALID,0.479688,
2011-01-01, 02:37:04,VALID,1000.46,VALID,0,INVALID,163.754,VALID,0.100563,VALID,23.4293,VALID,9,VALID,0.319141,
2011-01-01, 02:38:04,VALID,1000.49,VALID,0,INVALID,163.762,VALID,0.100563,VALID,23.4293,VALID,9,VALID,0.435937,
2011-01-01, 02:39:04,VALID,1000.5,VALID,0,INVALID,163.777,VALID,0.100563,VALID,23.4293,VALID,9,VALID,0.294531,
2011-01-01, 02:40:04,VALID,1000.5,VALID,0,INVALID,163.762,VALID,0.100563,VALID,23.4293,VALID,9,VALID,0.381641,
2011-01-01, 02:41:04,VALID,1000.51,VALID,0,INVALID,163.746,VALID,0.100563,VALID,23.4293,VALID,9,VALID,0.373437,
2011-01-01, 02:42:04,VALID,1000.5,VALID,0,INVALID,163.762,VALID,0,VALID,23.4098,VALID,9,VALID,0.467969,
2011-01-01, 02:43:04,VALID,1000.53,VALID,0,INVALID,163.746,VALID,0,VALID,23.4275,VALID,9,VALID,0.552344,
2011-01-01, 02:44:04,VALID,1000.52,VALID,0,INVALID,163.754,VALID,0.100563,VALID,23.4664,VALID,5,VALID,0.5125,
2011-01-01, 02:45:04,VALID,1000.5,VALID,0,INVALID,163.754,VALID,0,VALID,23.4664,VALID,5,VALID,0.461328,
2011-01-01, 02:46:04,VALID,1000.5,VALID,0,INVALID,163.762,VALID,0.100563,VALID,23.5266,VALID,5,VALID,0.517969,
2011-01-01, 02:47:04,VALID,1000.49,VALID,0,INVALID,163.754,VALID,0,VALID,23.5071,VALID,5,VALID,0.583203,
2011-01-01, 02:48:04,VALID,1000.5,VALID,0,INVALID,163.769,VALID,0.100563,VALID,23.4664,VALID,5,VALID,0.649219,
2011-01-01, 02:49:04,VALID,1000.53,VALID,0,INVALID,163.762,VALID,0,VALID,23.4487,VALID,5,VALID,0.633594,
2011-01-01, 02:50:04,VALID,1000.54,VALID,0,INVALID,163.769,VALID,0.100563,VALID,23.4894,VALID,4,VALID,0.608203,
2011-01-01, 02:51:04,VALID,1000.56,VALID,0,INVALID,163.784,VALID,0.100563,VALID,23.4664,VALID,1,VALID,0.748438,
2011-01-01, 02:52:04,VALID,1000.55,VALID,0,INVALID,163.754,VALID,0.100563,VALID,23.4877,VALID,360,VALID,0.557031,
2011-01-01, 02:53:04,VALID,1000.58,VALID,0,INVALID,163.762,VALID,0.100563,VALID,23.4664,VALID,359,VALID,0.508594,
2011-01-01, 02:54:04,VALID,1000.58,VALID,0,INVALID,163.777,VALID,0,VALID,23.5053,VALID,358,VALID,0.663672,
2011-01-01, 02:55:04,VALID,1000.61,VALID,0,INVALID,163.777,VALID,0.100563,VALID,23.5655,VALID,350,VALID,0.643359,
2011-01-01, 02:56:04,VALID,1000.58,VALID,0,INVALID,163.746,VALID,0.100563,VALID,23.585,VALID,350,VALID,0.615625,
2011-01-01, 02:57:04,VALID,1000.59,VALID,0,INVALID,163.762,VALID,0.100563,VALID,23.6239,VALID,350,VALID,0.544141,
2011-01-01, 02:58:04,VALID,1000.58,VALID,0,INVALID,163.754,VALID,0.100563,VALID,23.5637,VALID,350,VALID,0.401953,
2011-01-01, 02:59:04,VALID,1000.61,VALID,0,INVALID,163.777,VALID,0.100563,VALID,23.585,VALID,350,VALID,0.518359,
2011-01-01, 03:00:04,VALID,1000.58,VALID,0,INVALID,163.754,VALID,0.100563,VALID,23.546,VALID,350,VALID,0.565625,
2011-01-01, 03:01:04,VALID,1000.6,VALID,0,INVALID,163.762,VALID,0.100563,VALID,23.5071,VALID,350,VALID,0.490625,
2011-01-01, 03:02:04,VALID,1000.57,VALID,0,INVALID,163.769,VALID,0,VALID,23.4877,VALID,350,VALID,0.630859,
2011-01-01, 03:03:04,VALID,1000.58,VALID,0,INVALID,163.746,VALID,0,VALID,23.4664,VALID,350,VALID,0.594922,
2011-01-01, 03:04:04,VALID,1000.56,VALID,0,INVALID,163.762,VALID,0.100563,VALID,23.4682,VALID,350,VALID,0.592969,
2011-01-01, 03:05:04,VALID,1000.56,VALID,0,INVALID,163.769,VALID,0.100563,VALID,23.4877,VALID,350,VALID,0.527344,
2011-01-01, 03:06:04,VALID,1000.56,VALID,0,INVALID,163.762,VALID,0.100563,VALID,23.4877,VALID,350,VALID,0.564844,
2011-01-01, 03:07:04,VALID,1000.57,VALID,0,INVALID,163.746,VALID,0,VALID,23.4877,VALID,350,VALID,0.535156,
2011-01-01, 03:08:04,VALID,1000.57,VALID,0,INVALID,163.754,VALID,0.100563,VALID,23.4877,VALID,350,VALID,0.45,
2011-01-01, 03:09:04,VALID,1000.56,VALID,0,INVALID,163.746,VALID,0.100563,VALID,23.4877,VALID,350,VALID,0.507422,
2011-01-01, 03:10:04,VALID,1000.58,VALID,0,INVALID,163.739,VALID,0,VALID,23.4894,VALID,350,VALID,0.525,
2011-01-01, 03:11:04,VALID,1000.54,VALID,0,INVALID,163.769,VALID,0,VALID,23.4487,VALID,350,VALID,0.554297,
2011-01-01, 03:12:04,VALID,1000.55,VALID,0,INVALID,163.769,VALID,0,VALID,23.4487,VALID,350,VALID,0.534766,
2011-01-01, 03:13:04,VALID,1000.52,VALID,0,INVALID,163.754,VALID,0,VALID,23.4505,VALID,350,VALID,0.490234,
2011-01-01, 03:14:04,VALID,1000.52,VALID,0,INVALID,163.754,VALID,0,VALID,23.4293,VALID,350,VALID,0.526563,
2011-01-01, 03:15:04,VALID,1000.51,VALID,0,INVALID,163.746,VALID,0,VALID,23.47,VALID,350,VALID,0.616797,
2011-01-01, 03:16:04,VALID,1000.49,VALID,0,INVALID,163.731,VALID,0,VALID,23.4894,VALID,3,VALID,0.503906,
2011-01-01, 03:17:04,VALID,1000.47,VALID,0,INVALID,163.792,VALID,0,VALID,23.47,VALID,3,VALID,0.541016,
2011-01-01, 03:18:04,VALID,1000.47,VALID,0,INVALID,163.777,VALID,0,VALID,23.4682,VALID,3,VALID,0.401172,
2011-01-01, 03:19:04,VALID,1000.43,VALID,0,INVALID,163.762,VALID,0,VALID,23.4682,VALID,3,VALID,0.30625,
2011-01-01, 03:20:04,VALID,1000.41,VALID,0,INVALID,163.739,VALID,0,VALID,23.4293,VALID,3,VALID,0.3,
2011-01-01, 03:21:04,VALID,1000.38,VALID,0,INVALID,163.762,VALID,0,VALID,23.4505,VALID,3,VALID,0.308984,
2011-01-01, 03:22:04,VALID,1000.39,VALID,0,INVALID,163.754,VALID,0,VALID,23.4505,VALID,3,VALID,0.218359,
2011-01-01, 03:23:04,VALID,1000.39,VALID,0,INVALID,163.746,VALID,0,VALID,23.4505,VALID,3,VALID,0.444531,
2011-01-01, 03:24:04,VALID,1000.38,VALID,0,INVALID,163.762,VALID,0,VALID,23.47,VALID,3,VALID,0.419531,
2011-01-01, 03:25:04,VALID,1000.33,VALID,0,INVALID,163.754,VALID,0,VALID,23.4487,VALID,3,VALID,0.412891,
2011-01-01, 03:26:04,VALID,1000.36,VALID,0,INVALID,163.784,VALID,0,VALID,23.47,VALID,3,VALID,0.361328,
2011-01-01, 03:27:04,VALID,1000.36,VALID,0,INVALID,163.739,VALID,0,VALID,23.4487,VALID,3,VALID,0.183984,
2011-01-01, 03:28:04,VALID,1000.34,VALID,0,INVALID,163.746,VALID,0,VALID,23.4894,VALID,3,VALID,0.00585938,
2011-01-01, 03:29:04,VALID,1000.37,VALID,0,INVALID,163.777,VALID,0,VALID,23.4293,VALID,3,VALID,0,
2011-01-01, 03:30:04,VALID,1000.4,VALID,0,INVALID,163.754,VALID,0,VALID,23.4293,VALID,3,VALID,0,
2011-01-01, 03:31:04,VALID,1000.39,VALID,0,INVALID,163.746,VALID,0,VALID,23.4098,VALID,3,VALID,0.417188,
2011-01-01, 03:32:04,VALID,1000.38,VALID,0,INVALID,163.754,VALID,0,VALID,23.4293,VALID,3,VALID,0.390625,
2011-01-01, 03:33:04,VALID,1000.37,VALID,0,INVALID,163.754,VALID,0,VALID,23.3709,VALID,3,VALID,0.318359,
2011-01-01, 03:34:04,VALID,1000.41,VALID,0,INVALID,163.769,VALID,0,VALID,23.3532,VALID,3,VALID,0.201172,
2011-01-01, 03:35:04,VALID,1000.4,VALID,0,INVALID,163.754,VALID,0,VALID,23.3532,VALID,3,VALID,0,
2011-01-01, 03:36:04,VALID,1000.39,VALID,0,INVALID,163.739,VALID,0,VALID,23.3125,VALID,3,VALID,0,
2011-01-01, 03:37:04,VALID,1000.41,VALID,0,INVALID,163.746,VALID,0,VALID,23.3514,VALID,342,VALID,0.369922,
2011-01-01, 03:38:04,VALID,1000.38,VALID,0,INVALID,163.777,VALID,0,VALID,23.3904,VALID,341,VALID,0.323438,
2011-01-01, 03:39:04,VALID,1000.37,VALID,0,INVALID,163.754,VALID,0,VALID,23.3904,VALID,341,VALID,0.3875,
2011-01-01, 03:40:04,VALID,1000.34,VALID,0,INVALID,163.777,VALID,0,VALID,23.3904,VALID,341,VALID,0.426562,
2011-01-01, 03:41:04,VALID,1000.35,VALID,0,INVALID,163.769,VALID,0,VALID,23.4293,VALID,341,VALID,0.566406,